Regional Weather Roundup
Issued by NWS Cleveland, OH

Home | Current Version | Previous Version | Text Only | Print | Product List | Glossary Off
Versions: 1 2 3 4 5 6 7 8 9 10 11 12 13 14 15 16 17 18 19 20 21 22 23 24 25 26 27 28 29 30 31 32 33 34 35 36 37 38 39 40 41 42 43 44 45 46 47 48 49 50

000
ASUS41 KCLE 261712
RWRCLE
OHIO REGIONAL WEATHER ROUNDUP
NATIONAL WEATHER SERVICE WILMINGTON, OH
100 PM EDT TUE JUL 26 2016

NOTE: "FAIR" INDICATES FEW OR NO CLOUDS BELOW 12,000 FEET WITH NO
SIGNIFICANT WEATHER AND/OR OBSTRUCTIONS TO VISIBILITY.

OHZ001>008-015>018-024>027-034-035-043-044-261800-
   NORTHWEST OHIO

CITY           SKY/WX    TMP DP  RH WIND       PRES   REMARKS
DEFIANCE       FAIR      84  62  47 VRB5      30.07F
FINDLAY        FAIR      84  61  45 CALM      30.06S
TOLEDO EXPRESS FAIR      84  59  42 NE6       30.06F
TOLEDO EXEC    FAIR      83  59  44 E6        30.07F
LIMA           FAIR      84  66  54 CALM      30.06F
$$

OHZ009>014-019>023-028>033-038-089-261800-
   NORTHEAST OHIO

CITY           SKY/WX    TMP DP  RH WIND       PRES   REMARKS
CLE-HOPKINS    FAIR      84  56  38 N7        30.09S
CLE-LAKEFRONT  FAIR      79  61  53 N10       30.06S
CUY CO. ARPT   MOSUNNY   82  61  47 N9        30.08S
LORAIN-ELYRIA  FAIR      81  60  48 NE12      30.07F
ASHTABULA      FAIR      78  62  57 MISG      30.08S
AKRON-CANTON   PTSUNNY   83  63  50 CALM      30.07F
WOOSTER        FAIR      82  63  52 NE6       30.08F
MANSFIELD      PTSUNNY   83  63  50 VRB6      30.08F
YOUNGSTOWN     PTSUNNY   82  60  47 NW8       30.07S
$$

OHZ042-051>053-060>062-070>072-077>081-261800-
  SOUTHWEST OHIO

CITY           SKY/WX    TMP DP  RH WIND       PRES   REMARKS
CINC-COVINGTON CLOUDY    82  72  69 NW17      30.04F THUNDER
CINC-LUNKEN    TSTM      79  75  87 SW8       30.03F FOG
HAMILTON       LGT RAIN  76  72  87 NW5       30.06F FOG
DAYTON         PTSUNNY   82  67  60 VRB3      30.07F
WRIGHT-PAT AFB FAIR      84  67  56 CALM      30.04F
DAYTON GENERAL LGT RAIN  81  67  62 SW6       30.05F
WILMINGTON     FAIR      82  71  69 CALM      30.05F
$$

OHZ036-037-039>041-045>050-054>059-063>069-073>076-082>088-261800-
  CENTRAL AND SOUTHEAST OHIO

CITY           SKY/WX    TMP DP  RH WIND       PRES   REMARKS
COLUMBUS       CLOUDY    86  65  49 VRB3      30.04S
OSU AIRPORT    FAIR      85  67  54 NE3       30.05S
BOLTON FIELD   SUNNY     84  70  61 CALM      30.06S
RICKENBACK AFB FAIR      83  69  62 S5        30.04S
NEWARK         FAIR      86  65  49 CALM      30.05S
MARION         FAIR      86  62  44 N3        30.07S
LANCASTER      FAIR      83  72  69 CALM      30.06S
ZANESVILLE     FAIR      89  67  47 CALM      30.05S HX  92
NEW PHILLY     FAIR      87  62  43 VRB6      30.05F
$$



USA.gov is the U.S. government's official web portal to all federal, state and local government web resources and services.